Regional Weather Roundup
Issued by NWS Charleston, SC

Current Version | Previous Version | Graphics & Text | Print | Product List | Glossary On
Versions: 1 2 3 4 5 6 7 8 9 10 11 12 13 14 15 16 17 18 19 20 21 22 23 24 25 26 27 28 29 30 31 32 33 34 35 36 37 38 39 40 41 42 43 44 45 46 47 48 49 50
000
ASUS42 KCHS 300713
RWRCHS

REGIONAL WEATHER ROUNDUP
NATIONAL WEATHER SERVICE CHARLESTON SC
300 AM EDT SAT JUL 30 2016

NOTE: "FAIR" INDICATES FEW OR NO CLOUDS BELOW 12,000 FEET WITH NO
SIGNIFICANT WEATHER AND/OR OBSTRUCTIONS TO VISIBILITY.

NOT ALL STATIONS ARE QUALITY CONTROLLED. USE DATA WITH CAUTION...
ESPECIALLY DEWPOINT OBSERVATIONS.

SCZ027-030-031-034>040-042>050-300800-
...SOUTHEAST SOUTH CAROLINA...

CITY           SKY/WX    TMP DP  RH WIND       PRES   REMARKS
N CHARLESTON   CLEAR     83  78  85 SW7       29.93F HX  93
WATERFRONT PRK   N/A     86  80  82 SW6       29.92F HX 101
MOUNT PLEASANT FAIR      84  81  89 S8        29.94F HX  98
JOHNS ISLAND   FAIR      86  81  84 SW6       29.94F HX 102
PINOPOLIS        N/A     82  79  89 SW6       29.87F HX  93
MONCKS CORNER  FAIR      79  75  89 SW5       29.93F
SUMMERVILLE    NOT AVBL
BEAUFORT MCAS  CLEAR     82  76  81 SW6       29.95S
BEAUFORT ARPT  FAIR      82  77  83 SW5       29.95S HX  91
HILTON HEAD IS CLEAR     84  79  84 SW6       29.96S HX  96
WALTERBORO     SUNNY     82  81  94 SW5       29.95F HX  95
ALLENDALE      FAIR      79  72  78 CALM      29.94F

...SOUTHERN MIDLANDS AND PEE DEE...

CITY           SKY/WX    TMP DP  RH WIND       PRES   REMARKS
GEORGETOWN     FAIR      77  75  94 CALM      29.95F
KINGSTREE      FAIR      79  73  83 CALM      29.93F
ORANGEBURG     CLEAR     77  72  84 CALM      29.94F
BARNWELL       NOT AVBL
AIKEN          FAIR      77  68  73 CALM      29.99F
MANNING        FAIR      75  72  88 CALM      29.93F
COLUMBIA       CLEAR     80  72  76 CALM      29.93F
SUMTER         PTCLDY    77  73  88 W2        29.91F HAZE
FLORENCE       CLEAR     77  74  90 CALM      29.93F
MYRTLE BEACH   PTCLDY    82  72  69 S6        29.96S
N MYRTLE BEACH PTCLDY    81  77  88 SW5       29.93F

$$

GAZ063-065-086>088-099>101-113>116-118-119-134>141-150-300800-
...SOUTHEAST GEORGIA...

CITY           SKY/WX    TMP DP  RH WIND       PRES   REMARKS
SAVANNAH ARPT  CLEAR     82  73  74 SW6       29.97S
HUNTER AAF     CLEAR     81  78  90 SW7       29.94F HX  90
FORT STEWART   NOT AVBL
STATESBORO     CLEAR     82  72  70 W6        29.96F
SYLVANIA       NOT AVBL
CLAXTON        FAIR      80  71  75 SW3       29.97S

...CSRA...CENTRAL AND FAR SOUTHEAST GEORGIA...

CITY           SKY/WX    TMP DP  RH WIND       PRES   REMARKS
THOMSON        NOT AVBL
AUGUSTA-BUSH   CLEAR     75  70  84 CALM      29.94F
AUGUSTA-DANIEL CLEAR     82  70  66 CALM      29.96F
SWAINSBORO     FAIR      79  70  73 W3        29.98F
VIDALIA        CLEAR     81  70  69 W6        29.98F
EASTMAN        FAIR      81  64  55 W3        30.01F
HAZLEHURST     FAIR      81  75  82 CALM      29.98F
ALMA           CLEAR     79  72  79 CALM      29.99S
WAYCROSS       CLEAR     80  76  87 SW5       30.00S
JESUP          FAIR      77  73  88 SW3       29.99S
BAXLEY         FAIR      81  77  89 SW3       29.99S
BRUNSWICK      CLEAR     81  75  83 SW6       30.00S
SAINT SIMONS   CLEAR     82  74  76 SW8       29.99S

$$

SCZ027-028-034-036>038-045-046-048>050-GAZ119-141-300800-
...LAKE AND SUPPLEMENTAL COASTAL OBSERVATIONS...

STATION/POSITION TIME  TEMP    WIND        PRES    WAVE   SWELL
                       AIR SEA DIR/SP/G            HT/PER HT/PER/DIR
                 (UTC) (F)     (DEG/KT/KT) (MB)    (FT/S) (FT/S/D)
WINYAH BAY       0545   82     260/  2     1014.0
LAKE MURRAY      0600   84     260/  4/  6 1013.5F
ACE BASIN NERRS  NOT AVBL
FORT PULASKI     0600   84 87  210/  5/  8 1015.1F
SAPELO ISLAND    0600   84     220/ 11     1015.0S

$$

ANZ835-935-AMZ111-154-330-350-352-354-370-450-454-472-300800-
...C-MAN AND BUOY OBSERVATIONS...

STATION/POSITION TIME  TEMP    WIND        PRES    WAVE   SWELL
                       AIR SEA DIR/SP/G            HT/PER HT/PER/DIR
                 (UTC) (F)     (DEG/KT/KT) (MB)    (FT/S) (FT/S/D)
BUOY 41004       0550   86 86  220/ 17/ 21 1014.0    3/ 4   2/140/ 8
BUOY 41008       0550   86 87  200/ 16/ 19 1014.8    4/ 5
FOLLY BEACH CMAN 0600   86     220/ 13/ 17 1014.4F
CAPERS NEARSHORE 0608   86 84  230/ 16/ 21 1014.0F
FRIPP NEARSHORE  0608   87 87  230/ 17/ 21 1013.4F


STATION/POSITION TIME  TEMP    WIND        PRES    WAVE   SWELL
                       AIR SEA DIR/SP/G            HT/PER HT/PER/DIR
                 (UTC) (F)     (DEG/KT/KT) (MB)    (FT/S) (FT/S/D)
5E ST. MARYS GA  0601      85                N/A     2/ 4
FRYING PAN BUOY  0600   85 85  240/ 14/ 16 1014.0F
BUOY 41025       0550   84 85  230/  4/  4 1013.9    3/ 4   3/220/ 4
CAPE LOOKOUT NC  0600   82     260/  7/  8 1013.7F
BUOY 41002       0550   84 85  210/  8/ 10 1016.3    3/ 7   3/210/ 7
BUOY 41010       0620   85 87  230/  4/  6 1016.8F
ST AUGUSTINE FL  0600   79 85  230/  5/  7 1017.6F


$$



USA.gov is the U.S. government's official web portal to all federal, state and local government web resources and services.